Theta_e
343 347 351 352 353 353 352 351 350 349 349 347 345 344 343 343 343 344 342 341 341 343 344 344 344 344 343 345 345 345 344 342
336 345 352 352 354 354 353 352 351 350 349 348 347 346 346 346 346 345 344 343 345 346 345 344 344 344 344 343 344 345 344 342
338 343 353 353 353 353 353 352 351 350 350 350 348 348 348 347 347 347 347 345 346 345 344 342 341 341 344 344 343 344 343 341
340 341 354 352 353 355 353 352 351 350 350 350 349 349 349 349 349 349 348 348 346 345 342 339 339 339 339 342 342 343 342 341
337 337 352 352 351 351 351 353 352 351 351 350 350 350 349 350 349 349 348 349 347 344 340 338 338 337 337 339 342 343 341 342
332 337 345 352 352 350 347 350 353 353 352 352 351 351 349 344 341 344 345 348 347 343 340 339 337 337 337 336 338 340 341 336
328 335 338 342 350 350 347 346 350 350 349 348 345 345 346 343 344 342 343 349 344 342 340 339 338 337 336 331 330 338 336 335
329 330 337 344 348 348 345 345 350 348 346 345 344 345 347 346 345 342 339 340 339 340 336 338 336 334 333 331 330 335 335 334
329 336 339 346 349 347 346 345 350 348 346 344 344 347 346 346 345 342 339 341 338 338 337 336 334 334 333 336 335 333 333 334
332 338 340 349 347 349 351 345 348 349 346 345 347 347 347 344 342 343 341 342 341 340 338 337 336 335 334 333 333 333 332 332
339 340 343 350 349 349 346 352 351 350 349 347 347 347 347 345 343 343 344 341 340 340 337 337 335 335 333 332 333 332 333 334
341 341 342 349 352 350 351 349 359 352 351 348 346 348 345 344 344 346 342 341 339 339 339 337 336 336 334 332 332 331 331 332
343 339 347 337 352 352 353 352 350 350 349 349 344 345 344 346 346 345 341 339 340 341 339 336 334 333 333 331 329 330 331 332
342 348 347 348 351 351 354 353 351 355 347 345 345 343 344 344 344 342 340 340 342 339 336 335 333 332 330 330 329 329 331 333
343 345 352 352 354 351 352 352 349 347 345 344 343 343 346 344 343 342 339 341 340 337 335 334 331 332 330 329 331 329 330 332
342 345 351 351 353 350 348 344 341 339 340 340 342 343 343 344 342 342 340 339 338 335 333 332 331 329 324 327 327 326 328 330
343 345 347 348 350 349 347 346 341 339 337 339 340 343 343 342 341 341 340 338 337 334 332 331 330 326 325 328 322 322 318 322
339 341 342 346 348 348 345 345 348 343 344 340 341 340 342 341 341 340 338 338 336 334 331 331 330 328 325 328 327 322 316 314
337 339 342 345 345 346 347 344 342 336 335 338 337 339 341 342 340 339 339 335 334 334 332 332 332 329 327 323 326 328 326 323
Wind_Speed
17 16 16 23 20 20 19 18 18 17 15 14 13 12 11 10 9 8 8 8 9 10 10 11 10 10 10 10 9 9 8 8
16 16 19 24 21 20 20 19 18 17 15 14 14 13 12 10 9 8 9 9 11 11 11 9 9 9 9 12 12 6 6 9
10 13 17 23 23 20 19 19 18 18 18 17 16 14 13 11 10 10 9 12 13 10 10 9 9 9 9 8 10 9 7 8
7 14 15 15 17 20 18 19 19 18 18 18 17 15 13 12 11 10 11 12 11 10 9 9 9 10 10 10 9 8 9 9
14 14 18 17 16 14 13 18 19 19 18 17 17 16 13 12 10 11 14 13 13 12 11 10 10 11 11 11 10 10 11 11
7 14 20 20 18 17 14 14 17 19 19 17 15 15 11 7 8 14 16 18 16 15 12 12 12 13 13 13 14 13 14 5
12 4 17 17 19 18 14 14 15 13 11 11 11 11 8 9 8 11 4 14 15 16 14 15 15 14 12 6 6 18 6 9
13 7 8 14 14 18 14 11 9 8 8 9 12 10 10 9 8 5 4 7 7 12 7 9 9 7 9 7 7 4 9 9
10 6 4 16 13 15 12 10 11 10 9 9 11 13 10 6 4 2 3 3 6 5 8 5 6 8 8 6 4 5 6 4
7 6 6 10 14 13 10 10 11 10 10 11 11 12 9 5 4 4 6 4 3 1 2 4 3 2 3 3 4 4 5 7
5 5 6 4 13 12 13 8 6 7 8 9 6 6 7 4 3 3 4 4 4 3 2 3 2 2 3 4 5 5 5 5
4 8 7 6 13 12 11 9 3 5 5 5 4 6 9 6 4 3 3 3 4 4 2 2 4 4 3 5 6 8 6 6
7 7 7 6 15 12 10 7 5 4 5 2 4 4 7 7 5 3 4 4 4 4 2 3 4 4 4 4 4 3 3 4
9 7 6 7 14 13 10 6 7 5 4 3 4 4 8 7 7 6 4 4 2 1 4 3 3 3 3 3 3 1 3 3
5 4 4 6 11 13 8 6 5 4 4 4 4 4 7 6 7 6 4 4 2 3 3 3 4 4 4 4 2 3 2 4
4 3 5 7 8 9 8 8 5 5 4 4 4 6 6 4 4 5 4 3 3 4 5 4 4 5 2 3 2 2 3 5
6 6 6 6 7 8 7 6 6 5 7 5 5 6 6 5 5 4 3 3 4 3 4 5 6 3 4 4 3 2 3 3
8 8 7 7 10 8 8 5 4 4 2 4 3 3 5 3 2 3 2 3 4 4 5 5 5 6 4 4 7 4 3 4
10 9 9 9 10 7 8 6 6 4 3 3 4 4 4 5 5 4 3 3 5 4 4 4 5 6 4 4 3 8 8 2
Wind_Direction
148 160 166 173 180 180 180 178 178 179 179 180 189 191 192 200 210 219 235 247 255 263 263 271 270 266 265 266 259 246 253 265
162 163 158 172 182 185 181 181 182 178 180 183 195 199 200 206 216 224 239 251 256 261 269 286 284 285 289 281 268 259 252 264
162 151 156 173 178 187 185 183 185 182 184 186 195 201 205 207 213 226 240 251 256 254 265 275 282 288 290 282 268 250 248 258
195 156 151 168 180 183 189 187 186 190 191 187 194 201 203 208 217 225 243 254 237 241 249 260 272 279 276 271 260 243 245 248
193 178 153 161 175 187 193 195 191 188 198 194 195 198 199 210 221 229 234 233 234 231 235 241 254 264 266 264 256 250 239 239
230 187 158 164 173 177 192 197 200 194 196 196 201 200 193 214 224 227 222 224 221 221 225 232 242 248 254 255 246 237 227 224
292 212 177 176 168 170 181 190 194 198 202 197 200 198 199 217 218 233 117 182 189 198 216 234 239 246 252 250 238 226 216 223
279 299 182 177 165 169 181 178 182 194 196 200 204 201 197 206 220 211 210 188 182 202 218 227 224 226 226 223 242 146 203 220
283 313 317 174 167 178 172 174 178 189 189 196 201 199 200 200 182 213 269 267 179 204 204 216 195 196 231 235 259 217 215 239
290 307 304 169 176 173 175 175 175 191 187 194 198 201 190 183 195 195 207 217 155 315 286 212 192 32 262 244 265 261 252 250
273 273 258 210 175 170 181 174 165 176 179 193 185 160 172 175 195 213 203 211 185 190 239 315 260 271 264 223 237 250 257 274
279 245 226 148 163 172 175 182 159 178 186 169 142 153 155 179 220 252 237 184 188 197 222 270 281 242 249 266 243 226 221 231
254 226 207 190 160 164 167 178 190 180 164 141 156 161 162 165 190 221 225 228 209 147 180 231 240 253 241 251 281 283 231 232
231 195 176 158 148 159 159 165 186 148 146 191 167 168 166 175 190 204 230 269 68 183 233 226 245 224 262 267 257 305 261 246
106 114 160 145 137 156 152 158 171 152 171 190 183 185 168 178 194 191 218 207 171 228 233 215 225 221 229 244 264 263 255 236
114 117 110 127 132 147 153 163 158 175 169 226 181 188 186 168 208 187 218 200 201 224 218 207 224 241 265 227 167 247 247 252
131 120 127 143 152 148 143 165 172 174 189 195 186 182 169 178 206 207 204 204 215 222 226 205 204 198 208 165 173 226 209 243
133 136 150 161 141 148 139 179 178 173 161 168 150 153 168 175 151 174 226 187 202 205 221 219 205 202 205 197 201 198 183 215
139 140 143 140 144 163 163 172 140 141 176 181 199 101 116 170 184 136 218 219 208 219 248 194 203 218 186 217 197 229 256 269